FDY474 PHNL-PHMK

Flight info

Callsign FDY474
Flight time 0h 21m
Altitude 5000
Route MKK5 MKK
Aircraft C208/L-SDFGR/G

Departure

Time 2026-04-25 21:45
Airport Daniel K. Inouye International Airport (PHNL)

Arrival

Time 2026-04-25 22:06
Airport Molokai Airport (PHMK)
Time Latitude Longitude Altitude Speed Heading
2026-04-25 21:29 21.33122 -157.91073 18 ft 0 kts 233°
2026-04-25 21:38 21.33120 -157.91075 18 ft 3 kts 219°
2026-04-25 21:38 21.33088 -157.91062 18 ft 6 kts 144°
2026-04-25 21:38 21.33038 -157.91027 17 ft 12 kts 147°
2026-04-25 21:38 21.32995 -157.90964 17 ft 10 kts 81°
2026-04-25 21:39 21.33024 -157.90890 17 ft 11 kts 58°
2026-04-25 21:39 21.33041 -157.90812 14 ft 11 kts 86°
2026-04-25 21:39 21.33006 -157.90731 12 ft 13 kts 146°
2026-04-25 21:39 21.32936 -157.90680 14 ft 12 kts 146°
2026-04-25 21:40 21.32854 -157.90614 16 ft 16 kts 140°
2026-04-25 21:40 21.32767 -157.90555 16 ft 14 kts 182°
2026-04-25 21:40 21.32704 -157.90616 17 ft 11 kts 231°
2026-04-25 21:40 21.32658 -157.90679 17 ft 10 kts 231°
2026-04-25 21:41 21.32627 -157.90723 17 ft 5 kts 234°
2026-04-25 21:41 21.32621 -157.90732 17 ft 0 kts 233°
2026-04-25 21:41 21.32618 -157.90736 17 ft 6 kts 233°
2026-04-25 21:41 21.32573 -157.90801 18 ft 14 kts 232°
2026-04-25 21:42 21.32508 -157.90904 18 ft 19 kts 238°
2026-04-25 21:42 21.32425 -157.91036 15 ft 24 kts 232°
2026-04-25 21:42 21.32322 -157.91181 15 ft 23 kts 233°
2026-04-25 21:42 21.32245 -157.91294 12 ft 8 kts 231°
2026-04-25 21:43 21.32220 -157.91326 12 ft 12 kts 230°
2026-04-25 21:43 21.32163 -157.91406 14 ft 13 kts 233°
2026-04-25 21:43 21.32150 -157.91466 14 ft 6 kts 298°
2026-04-25 21:43 21.32184 -157.91497 13 ft 7 kts 321°
2026-04-25 21:44 21.32224 -157.91523 13 ft 7 kts
2026-04-25 21:44 21.32256 -157.91494 12 ft 9 kts 53°
2026-04-25 21:44 21.32806 -157.90706 339 ft 86 kts 54°
2026-04-25 21:45 21.32961 -157.90098 764 ft 94 kts 93°
2026-04-25 21:45 21.32885 -157.89866 883 ft 101 kts 112°
2026-04-25 21:45 21.31578 -157.89425 1403 ft 128 kts 163°
2026-04-25 21:45 21.30736 -157.89282 1865 ft 118 kts 164°
2026-04-25 21:46 21.29953 -157.89171 2312 ft 109 kts 163°
2026-04-25 21:46 21.29230 -157.89088 2748 ft 99 kts 164°
2026-04-25 21:46 21.28579 -157.89022 3157 ft 91 kts 162°
2026-04-25 21:46 21.27945 -157.88979 3508 ft 92 kts 167°
2026-04-25 21:47 21.27317 -157.88923 3863 ft 89 kts 163°
2026-04-25 21:47 21.26697 -157.88880 4168 ft 91 kts 164°
2026-04-25 21:47 21.26035 -157.88823 4435 ft 99 kts 164°
2026-04-25 21:47 21.25322 -157.88742 4717 ft 106 kts 163°
2026-04-25 21:48 21.24556 -157.88651 4998 ft 116 kts 166°
2026-04-25 21:48 21.23670 -157.88519 5022 ft 142 kts 163°
2026-04-25 21:48 21.22626 -157.88337 5019 ft 159 kts 165°
2026-04-25 21:48 21.21616 -157.87875 5016 ft 158 kts 135°
2026-04-25 21:49 21.21062 -157.86883 5011 ft 157 kts 99°
2026-04-25 21:49 21.21064 -157.86116 5006 ft 157 kts 78°
2026-04-25 21:49 21.21316 -157.84975 5013 ft 158 kts 81°
2026-04-25 21:49 21.21295 -157.83797 5009 ft 159 kts 93°
2026-04-25 21:50 21.21178 -157.82613 5009 ft 160 kts 93°
2026-04-25 21:50 21.21052 -157.81422 5007 ft 161 kts 94°
2026-04-25 21:50 21.20920 -157.80226 5007 ft 162 kts 94°
2026-04-25 21:50 21.20787 -157.79028 5003 ft 161 kts 94°
2026-04-25 21:51 21.20655 -157.77836 5000 ft 161 kts 94°
2026-04-25 21:51 21.20521 -157.76643 5003 ft 161 kts 94°
2026-04-25 21:51 21.20390 -157.75453 5003 ft 161 kts 94°
2026-04-25 21:51 21.20260 -157.74262 5004 ft 161 kts 95°
2026-04-25 21:52 21.20131 -157.73075 5005 ft 160 kts 95°
2026-04-25 21:52 21.19999 -157.71884 5001 ft 161 kts 95°
2026-04-25 21:52 21.19865 -157.70693 5002 ft 161 kts 95°
2026-04-25 21:52 21.19735 -157.69505 5001 ft 160 kts 94°
2026-04-25 21:53 21.19604 -157.68317 5000 ft 161 kts 94°
2026-04-25 21:53 21.19474 -157.67127 5004 ft 160 kts 94°
2026-04-25 21:53 21.19340 -157.65944 5002 ft 160 kts 95°
2026-04-25 21:53 21.19208 -157.64769 4996 ft 161 kts 94°
2026-04-25 21:54 21.19075 -157.63564 4999 ft 161 kts 94°
2026-04-25 21:54 21.18942 -157.62368 4998 ft 162 kts 95°
2026-04-25 21:54 21.18811 -157.61191 4996 ft 161 kts 94°
2026-04-25 21:54 21.18678 -157.59995 5001 ft 161 kts 95°
2026-04-25 21:55 21.18545 -157.58794 4999 ft 160 kts 95°
2026-04-25 21:55 21.18411 -157.57599 4999 ft 161 kts 95°
2026-04-25 21:55 21.18278 -157.56403 4998 ft 162 kts 95°
2026-04-25 21:55 21.18144 -157.55208 5002 ft 161 kts 94°
2026-04-25 21:56 21.18012 -157.54018 5000 ft 161 kts 94°
2026-04-25 21:56 21.17925 -157.53233 5000 ft 160 kts 95°
2026-04-25 21:56 21.17746 -157.51641 4995 ft 161 kts 95°
2026-04-25 21:56 21.17613 -157.50449 5002 ft 161 kts 95°
2026-04-25 21:57 21.17480 -157.49257 5000 ft 161 kts 95°
2026-04-25 21:57 21.17345 -157.48062 5001 ft 161 kts 95°
2026-04-25 21:57 21.17213 -157.46874 5000 ft 161 kts 95°
2026-04-25 21:57 21.17079 -157.45681 5002 ft 162 kts 95°
2026-04-25 21:58 21.16944 -157.44483 5000 ft 161 kts 95°
2026-04-25 21:58 21.16809 -157.43288 4996 ft 162 kts 95°
2026-04-25 21:58 21.16676 -157.42093 5002 ft 162 kts 95°
2026-04-25 21:58 21.16541 -157.40896 5000 ft 162 kts 95°
2026-04-25 21:59 21.16405 -157.39694 5002 ft 163 kts 95°
2026-04-25 21:59 21.16270 -157.38489 4998 ft 163 kts 94°
2026-04-25 21:59 21.16135 -157.37286 4999 ft 163 kts 95°
2026-04-25 22:00 21.15862 -157.34867 5001 ft 163 kts 95°
2026-04-25 22:00 21.15726 -157.33664 4997 ft 162 kts 95°
2026-04-25 22:00 21.15591 -157.32479 4999 ft 162 kts 95°
2026-04-25 22:00 21.15456 -157.31265 4999 ft 162 kts 95°
2026-04-25 22:01 21.15319 -157.30063 4999 ft 162 kts 95°
2026-04-25 22:01 21.15183 -157.28863 4996 ft 162 kts 95°
2026-04-25 22:01 21.15048 -157.27658 5008 ft 165 kts 95°
2026-04-25 22:01 21.14962 -157.26887 4995 ft 169 kts 95°
2026-04-25 22:02 21.14772 -157.25213 4993 ft 168 kts 96°
2026-04-25 22:02 21.14623 -157.23983 4988 ft 169 kts 95°
2026-04-25 22:02 21.14473 -157.22745 4989 ft 165 kts 95°
2026-04-25 22:02 21.14348 -157.21581 4975 ft 150 kts 94°
2026-04-25 22:03 21.14239 -157.20510 4940 ft 142 kts 94°
2026-04-25 22:03 21.14117 -157.19437 4775 ft 149 kts 95°
2026-04-25 22:03 21.13982 -157.18329 4566 ft 147 kts 95°
2026-04-25 22:03 21.13864 -157.17299 4320 ft 131 kts 95°
2026-04-25 22:04 21.13740 -157.16351 3893 ft 130 kts 95°
2026-04-25 22:04 21.13598 -157.15420 3461 ft 129 kts 96°
2026-04-25 22:04 21.13451 -157.14450 3072 ft 135 kts 96°
2026-04-25 22:04 21.13363 -157.13417 2365 ft 144 kts 82°
2026-04-25 22:05 21.13700 -157.12385 1656 ft 143 kts 72°
2026-04-25 22:05 21.14173 -157.11533 1174 ft 122 kts 75°
2026-04-25 22:05 21.14585 -157.10807 794 ft 107 kts 56°
2026-04-25 22:05 21.14933 -157.10171 527 ft 91 kts 56°
2026-04-25 22:06 21.15209 -157.09649 461 ft 69 kts 60°
2026-04-25 22:06 21.15347 -157.09390 463 ft 28 kts 60°
2026-04-25 22:06 21.15417 -157.09277 463 ft 9 kts
2026-04-25 22:06 21.15471 -157.09294 462 ft 6 kts
2026-04-25 22:07 21.15494 -157.09283 462 ft 5 kts
2026-04-25 22:07 21.15519 -157.09297 462 ft 6 kts 334°
2026-04-25 22:07 21.15536 -157.09286 462 ft 1 kts 60°
2026-04-25 22:07 21.15538 -157.09282 462 ft 0 kts 61°